Theta_e
322 333 335 325 308 307 302 305 309 308 307 316 317 315 314 318 315 311 333 337 342 342 345 345 346 348 348 349 349 348 348 347 346 346 345 344 342 341 340 340 342 342 342 340 336 337 338 338 338
317 321 323 316 303 300 302 309 308 310 313 316 317 316 314 315 326 328 330 338 343 344 344 343 344 348 349 348 348 347 348 347 346 346 345 343 341 340 339 338 339 340 340 338 336 337 338 338 337
320 318 308 307 303 299 302 309 309 314 316 313 313 317 318 320 328 330 336 338 343 343 344 343 343 348 348 348 347 347 348 347 345 344 344 342 340 338 338 337 338 337 339 336 336 336 337 338 337
313 313 309 301 300 305 307 308 311 314 314 316 315 310 323 329 328 335 337 339 341 341 344 340 344 348 348 347 347 347 346 346 345 344 341 340 339 337 338 338 335 337 338 336 334 335 335 335 335
313 310 301 300 300 305 309 312 311 313 314 313 313 313 318 328 335 336 336 339 339 341 342 341 344 346 347 347 347 346 346 346 345 343 342 342 340 339 340 339 337 335 335 335 333 334 334 332 331
306 309 299 297 301 306 307 311 309 309 313 314 312 313 319 330 332 334 337 338 341 341 341 340 339 341 344 345 346 345 345 345 344 343 342 342 340 341 340 339 339 336 334 334 334 333 332 331 329
304 303 300 300 302 305 305 310 305 308 311 312 313 309 321 325 333 335 336 340 340 342 340 338 342 340 337 340 341 342 343 343 343 342 341 339 338 338 338 338 339 337 335 334 333 331 330 329 328
307 302 299 301 301 301 305 307 311 310 310 317 316 309 315 326 334 335 335 338 339 339 335 334 341 341 341 339 335 336 338 339 339 338 335 332 333 333 334 333 336 338 334 333 332 330 329 329 329
310 299 297 300 301 302 304 303 311 313 311 312 317 319 325 332 333 332 331 333 334 333 331 336 338 340 340 340 334 332 333 334 334 333 329 327 330 330 327 329 333 335 335 334 334 333 332 331 330
303 299 300 306 305 300 302 301 304 307 308 310 317 323 330 331 330 328 328 327 330 330 332 336 335 336 339 339 337 338 338 337 336 334 330 331 328 328 329 324 328 331 330 330 330 330 330 327 324
305 299 305 306 304 302 301 301 304 305 304 310 313 321 327 327 327 327 328 330 330 331 333 336 336 336 336 337 338 338 337 335 335 334 332 330 329 326 327 324 323 323 322 324 326 325 325 324 323
301 304 306 307 304 300 299 302 301 302 304 314 315 324 326 325 326 327 327 329 330 330 332 334 334 335 335 337 337 335 335 333 331 330 332 330 327 326 325 325 324 324 323 323 323 323 324 323 323
303 304 305 308 304 301 301 299 299 300 304 311 318 324 324 325 326 328 330 331 330 330 331 332 335 334 336 335 336 334 332 330 330 330 330 329 327 325 325 324 324 323 324 323 321 321 321 321 322
305 304 304 305 306 304 299 298 299 299 303 304 314 316 322 324 324 326 327 328 330 332 332 332 332 335 336 335 333 332 332 333 333 332 331 329 328 326 325 323 323 323 323 323 322 322 321 321 322
299 294 297 299 304 303 302 296 296 301 303 303 302 308 317 322 325 324 326 327 329 331 332 332 332 334 334 333 333 333 333 333 331 331 332 332 329 329 326 324 323 323 323 323 322 322 322 321 323
293 293 288 297 300 303 302 293 298 301 301 301 301 301 305 314 321 325 327 328 328 330 330 333 333 333 333 334 333 333 333 332 332 331 332 332 331 330 328 327 327 327 326 326 324 324 323 323 322
289 284 287 292 300 299 295 291 300 302 297 299 300 300 302 303 311 320 325 328 329 329 330 331 331 331 333 334 334 334 333 332 332 332 332 332 332 332 330 328 328 328 327 326 325 323 323 322 322
283 284 287 288 295 296 294 292 296 297 295 296 296 297 299 301 305 309 321 326 329 329 329 331 331 330 332 333 334 334 333 332 332 332 332 332 333 332 330 329 328 328 326 325 324 323 324 323 322
287 286 285 288 291 288 289 290 295 298 295 294 294 295 296 298 301 302 312 321 326 328 329 330 329 329 330 330 330 331 330 331 331 332 332 331 332 331 329 329 328 328 326 325 325 324 320 322 324
288 285 284 289 292 288 287 287 292 295 296 295 296 296 296 297 297 300 302 306 317 326 328 330 331 329 330 331 331 333 332 331 332 332 332 331 330 330 330 328 329 329 328 326 324 325 321 320 322
288 285 284 285 288 288 287 283 287 292 294 295 295 296 297 298 298 298 299 302 305 316 326 328 331 331 331 331 332 330 330 330 330 330 330 331 333 331 330 330 330 329 329 326 326 324 321 317 319
285 290 289 287 284 277 285 274 283 289 290 292 293 294 295 295 297 298 298 299 301 302 306 317 329 331 333 334 331 328 329 327 329 330 331 331 332 331 333 332 330 329 329 328 325 327 322 320 316
287 291 288 287 284 281 280 276 281 287 285 288 291 292 293 293 296 298 299 300 302 301 299 302 307 322 331 332 332 330 328 329 330 328 328 331 333 332 331 331 330 329 328 328 327 326 326 325 323
293 289 287 286 283 275 280 279 278 283 286 288 289 291 295 296 296 297 298 299 300 302 304 301 302 308 314 326 327 330 328 328 328 327 329 328 328 322 323 326 326 326 326 326 326 326 324 323 322
290 284 274 272 273 272 281 280 281 287 287 289 290 292 294 294 293 293 293 293 294 297 300 305 304 301 303 305 306 310 314 315 315 318 319 321 317 316 317 320 315 315 316 320 323 322 321 320 321
287 284 277 269 271 275 280 276 281 290 292 292 294 294 293 292 291 290 290 290 290 292 294 297 297 297 297 297 298 301 304 305 304 305 306 306 307 309 311 311 311 310 311 312 311 311 310 309 307
287 283 287 280 275 273 277 281 287 290 290 291 292 292 290 290 289 289 289 288 288 289 290 291 292 293 293 294 295 295 297 299 299 300 300 301 303 304 303 303 302 302 303 306 304 303 302 301 301
289 290 280 279 267 268 276 277 279 285 287 290 290 289 289 289 288 287 286 287 287 287 287 288 288 288 290 291 291 291 292 293 294 295 295 296 298 298 298 297 296 296 297 298 298 297 298 297 297
285 284 285 284 280 273 272 276 285 288 289 289 289 289 289 288 287 286 286 286 286 286 285 285 285 286 287 287 288 288 289 289 290 290 290 292 293 293 293 292 291 291 291 292 292 292 292 292 291
287 286 286 278 273 278 278 277 290 290 291 289 288 289 287 287 285 284 284 285 284 284 283 283 284 284 285 286 286 285 286 286 286 287 288 290 290 290 289 288 288 288 288 289 289 289 289 288 287
Wind_Speed
14 10 7 2 3 5 10 11 1 6 3 6 6 5 7 9 4 5 6 9 21 19 16 15 16 16 15 14 15 15 13 13 13 16 16 14 13 12 12 13 11 10 15 15 13 13 14 15 14
9 9 3 4 5 7 7 9 4 5 8 8 8 4 3 5 8 10 6 13 20 18 16 14 14 16 15 14 14 14 14 12 13 15 14 13 12 12 12 12 11 10 13 13 14 13 13 14 14
8 9 2 4 5 8 6 6 8 11 8 6 4 2 5 5 10 11 11 17 20 18 15 14 14 16 15 15 13 12 13 12 14 14 14 13 12 12 12 12 10 11 12 13 13 12 12 12 12
4 2 4 4 11 13 5 2 7 9 4 6 7 6 7 7 5 10 11 15 19 16 15 16 15 16 16 15 14 12 13 14 15 13 13 12 12 12 11 10 10 11 11 12 11 11 11 11 10
3 4 5 7 13 15 4 9 6 7 8 4 3 7 6 4 11 13 12 12 17 14 15 14 15 16 16 15 15 13 14 14 15 14 12 12 12 13 12 11 11 10 10 10 10 9 9 9 9
4 3 5 9 11 13 1 9 2 5 7 8 4 3 5 9 10 10 12 11 15 15 14 13 12 14 14 13 14 14 13 13 13 14 13 12 10 11 12 13 13 12 10 9 8 7 7 6 7
7 4 8 11 12 8 5 7 3 5 4 6 1 2 6 8 11 9 9 16 12 13 13 12 10 12 12 12 12 12 11 11 11 12 13 11 12 9 8 7 11 15 12 9 8 6 5 4 5
3 2 6 8 10 6 6 3 7 7 4 5 5 1 7 10 12 11 8 14 15 12 12 11 11 10 9 8 11 10 11 10 10 8 9 14 8 10 6 6 7 13 12 9 7 6 5 3 3
6 3 5 8 7 8 6 5 4 4 1 3 5 5 14 14 10 10 8 7 13 10 11 11 10 11 11 9 7 8 9 9 9 7 8 8 6 6 7 7 8 8 6 7 10 7 5 4 5
5 4 7 8 5 5 10 10 9 3 2 4 8 5 13 11 8 11 11 10 11 11 14 13 10 9 11 10 9 7 6 4 5 6 7 5 6 6 8 8 9 8 7 6 6 5 5 5 4
3 10 9 7 5 9 6 8 8 6 4 5 11 10 11 8 8 7 9 9 10 10 7 14 14 10 9 7 7 5 4 4 4 7 6 5 4 4 4 4 3 4 5 3 5 4 4 6 5
13 12 12 12 6 4 5 9 9 7 7 7 9 15 13 12 11 10 8 11 11 8 6 10 6 10 10 5 6 5 5 4 4 5 7 5 2 4 4 4 5 4 4 5 5 4 5 6 2
14 16 10 10 4 3 4 7 5 12 11 5 8 10 10 10 12 13 14 12 7 12 7 5 8 7 9 8 6 6 5 4 5 5 6 4 4 4 4 4 4 5 4 5 4 3 3 4 4
8 21 13 14 10 3 5 7 1 3 6 9 6 3 9 9 9 11 12 11 14 12 15 10 6 9 10 8 6 4 4 7 5 6 6 7 5 5 5 4 4 4 4 4 4 4 4 4 4
6 6 8 9 10 6 2 8 7 9 8 9 7 7 6 10 10 9 10 9 12 9 11 15 10 5 8 7 6 4 4 4 4 4 7 8 5 6 6 4 4 4 4 5 3 3 1 1 3
3 5 6 6 8 8 8 10 3 7 10 10 10 8 9 8 8 11 10 10 9 10 11 14 12 10 5 9 5 4 4 4 5 4 4 6 6 7 5 4 4 4 4 4 3 4 4 3 2
6 4 12 11 11 6 10 2 11 13 3 8 8 7 7 7 9 7 9 11 9 10 12 12 14 13 11 5 5 5 5 4 4 4 4 6 6 6 5 4 4 5 4 4 4 3 2 2 2
6 9 10 9 6 9 10 8 8 2 2 7 6 7 7 7 7 5 8 7 9 9 9 12 12 12 11 8 4 5 4 4 4 4 5 8 7 8 6 5 5 5 4 3 2 3 2 3 3
2 4 6 4 6 3 5 8 10 12 6 6 5 6 7 8 5 3 5 2 8 8 8 11 13 12 9 8 8 6 7 5 5 5 7 8 9 10 7 5 5 5 5 5 5 4 3 3 4
6 5 4 5 4 2 5 9 10 12 9 9 9 8 7 6 3 4 1 2 4 6 7 8 15 14 11 8 9 6 5 4 5 6 7 7 7 7 7 6 5 6 5 5 5 5 3 4 4
8 7 4 1 2 3 6 8 10 11 9 9 8 7 6 7 6 6 5 7 4 4 7 7 9 15 14 13 8 4 3 3 5 6 5 5 8 7 7 7 8 6 6 5 5 6 7 4 4
9 7 7 4 1 2 2 6 5 19 16 13 9 7 7 5 5 3 7 7 4 7 6 4 6 9 14 16 12 11 7 7 8 8 4 5 7 7 7 7 8 5 4 5 5 5 4 3 4
5 7 6 6 5 3 5 3 7 11 2 7 10 6 8 8 9 9 10 8 8 9 8 7 6 6 7 10 13 11 10 7 6 3 8 9 6 5 5 6 6 5 4 4 5 4 5 4 3
2 3 2 2 2 6 8 8 6 8 8 6 7 9 9 8 9 10 10 11 11 11 10 8 7 10 13 4 1 10 10 8 4 5 5 5 4 5 6 7 6 4 3 2 2 3 4 4 3
7 6 2 1 2 6 5 11 10 2 4 7 10 9 8 8 8 8 9 9 10 11 11 10 11 11 11 12 12 10 8 7 6 5 4 6 5 3 5 6 7 5 5 5 3 2 4 3 1
12 12 5 7 4 4 6 7 5 6 9 10 11 10 8 7 7 7 7 6 7 9 11 11 11 11 11 12 12 10 10 6 7 8 7 7 7 5 6 8 8 8 7 6 7 5 5 6 6
9 12 7 5 2 2 5 4 2 8 8 8 10 9 7 7 6 6 6 6 7 8 10 10 10 11 12 12 10 12 11 10 9 9 9 8 7 8 10 10 10 10 9 9 8 6 6 7 6
8 6 5 3 3 5 5 5 5 3 7 7 8 7 6 7 6 6 6 6 6 7 7 9 10 10 11 11 10 10 11 11 10 10 11 10 10 10 11 11 11 10 10 10 8 7 7 8 5
9 6 4 3 6 4 1 4 4 6 8 10 9 7 7 7 7 6 6 5 7 7 8 8 9 10 11 11 11 11 11 11 11 11 10 10 11 11 11 11 11 11 10 9 8 8 8 9 8
5 8 9 4 5 4 5 8 4 8 10 12 8 8 8 7 7 6 6 6 7 8 8 8 8 9 9 10 11 12 12 12 12 11 11 10 11 10 10 10 11 10 10 8 8 9 8 8 9
Wind_Direction
308 240 215 235 245 225 249 254 300 70 36 69 77 48 56 33 26 116 163 122 123 132 139 146 147 147 149 143 137 139 143 142 143 132 126 120 112 105 104 100 90 99 97 96 88 83 90 86 82
308 292 276 268 244 238 281 199 134 148 80 95 76 44 303 99 77 127 96 137 126 133 143 146 146 148 147 142 140 151 145 146 140 131 125 118 112 108 107 104 102 106 110 103 93 86 90 95 87
257 264 275 214 233 252 253 275 173 90 113 113 118 338 1 74 110 146 138 134 129 134 150 143 148 149 144 144 150 145 144 142 134 130 124 119 119 113 110 109 112 115 105 104 98 90 90 88 89
308 222 258 256 255 229 230 7 28 97 127 162 145 131 81 1 119 114 144 144 125 144 137 141 148 149 146 151 152 148 148 141 135 127 126 127 123 121 120 117 124 115 115 116 104 94 92 92 89
252 258 254 231 254 276 85 87 4 138 149 185 226 141 87 63 88 128 144 143 137 127 131 143 147 148 152 157 151 151 152 143 134 126 130 133 143 140 137 130 120 124 125 112 112 102 94 92 85
281 217 253 240 247 251 88 81 13 282 175 154 177 173 87 122 121 140 139 133 118 128 136 142 139 145 151 153 150 151 154 145 137 142 148 159 162 148 149 149 139 126 124 120 120 115 105 96 87
238 286 249 262 263 253 74 54 267 257 198 127 335 206 122 148 131 142 152 119 125 132 138 145 148 150 148 148 146 152 149 143 148 160 162 156 125 111 97 127 149 136 132 136 132 129 117 106 94
293 288 266 256 274 294 56 34 49 327 329 98 12 13 159 144 139 139 152 134 142 152 138 152 152 154 155 156 152 155 153 156 162 163 166 133 129 125 123 120 140 140 136 143 143 144 143 141 136
292 247 227 238 259 272 82 26 88 9 207 59 75 34 119 126 141 144 134 143 141 141 146 149 154 160 160 158 158 152 157 160 160 152 138 145 144 158 154 180 142 115 141 154 158 168 174 191 215
222 213 242 256 282 10 13 360 345 327 242 115 85 75 109 126 160 155 153 160 140 161 163 156 162 174 160 159 147 158 155 162 167 158 162 181 164 172 175 146 154 151 168 164 204 216 196 209 241
236 247 265 265 34 29 351 322 321 344 304 178 164 150 136 159 156 157 134 163 156 178 167 162 167 162 153 151 155 166 158 169 176 172 169 208 173 144 135 137 155 160 176 187 197 208 203 225 242
273 270 266 275 63 49 325 336 330 300 276 37 342 154 153 168 157 170 168 185 176 188 172 146 157 147 155 142 164 161 160 173 169 173 175 182 173 149 154 150 173 184 181 211 195 206 209 226 239
238 267 274 272 214 200 284 277 279 299 310 7 32 143 156 171 171 175 178 190 175 171 194 181 171 146 158 163 181 174 167 170 172 165 170 166 162 154 166 192 172 176 182 192 231 211 232 220 240
193 233 253 269 269 239 242 261 252 259 297 276 133 243 169 185 195 171 181 180 181 179 177 189 209 178 165 177 175 182 154 173 177 169 169 179 168 168 182 194 189 184 180 193 193 212 215 228 222
281 297 259 251 259 212 20 268 211 240 265 286 292 200 222 191 188 195 182 182 172 185 163 172 196 214 176 171 167 177 165 160 186 179 167 177 186 173 176 186 188 197 196 195 197 214 245 290 287
236 228 247 215 218 232 181 262 264 235 220 238 245 264 209 219 197 190 185 181 174 170 176 163 175 206 211 183 177 163 173 181 182 170 168 171 188 206 191 193 201 203 206 190 189 209 221 229 275
237 236 220 251 238 188 178 218 239 265 246 239 245 240 264 216 200 211 190 177 176 171 173 170 162 181 207 205 166 175 178 184 187 168 165 175 181 200 183 193 208 209 202 201 217 234 200 203 248
187 210 250 263 238 204 201 218 271 174 246 246 263 273 267 262 207 231 196 177 168 172 175 163 154 162 197 207 198 180 189 186 181 187 176 179 187 196 205 201 195 196 192 204 195 199 221 200 230
340 324 277 262 46 46 262 259 230 240 211 237 235 248 258 277 288 337 65 353 165 162 173 160 155 165 180 192 202 193 194 185 186 197 200 186 186 200 197 202 202 185 173 180 190 188 210 246 221
232 227 260 319 293 335 283 267 248 250 250 218 224 219 223 231 264 274 159 37 335 174 180 177 162 167 185 196 199 205 170 177 196 209 206 190 183 184 184 188 206 181 179 192 197 166 180 222 221
226 230 228 150 334 264 292 267 254 259 234 242 231 229 241 235 221 200 200 189 225 262 193 197 177 173 180 190 198 147 129 186 207 208 199 198 191 190 185 186 209 208 177 196 192 185 191 205 250
240 219 254 244 268 226 168 285 248 232 233 220 226 215 215 263 285 40 38 41 39 349 354 342 203 191 184 184 179 178 193 190 213 211 174 195 199 190 191 193 214 203 183 198 202 180 178 184 239
239 287 237 227 252 297 241 279 242 266 170 169 204 185 65 54 53 47 33 24 32 7 348 346 344 320 200 186 172 186 189 214 186 192 186 200 190 198 200 200 197 200 212 213 199 194 194 198 217
138 242 188 221 219 263 210 212 223 243 201 173 98 77 64 49 47 40 34 27 19 12 1 342 343 16 19 0 186 177 188 198 219 201 180 139 106 75 60 76 81 71 77 132 188 217 224 206 216
162 167 132 206 211 226 187 211 238 313 75 104 120 104 76 58 44 39 31 30 22 13 9 24 40 37 32 36 39 40 58 61 61 50 57 96 86 56 51 77 70 54 33 30 25 25 55 20 340
192 192 167 187 199 208 186 237 223 68 79 87 83 89 83 70 66 53 42 39 35 22 18 32 40 45 41 46 45 45 47 58 63 54 65 70 77 62 57 68 78 72 57 54 46 38 49 50 47
188 224 254 7 152 56 220 273 180 137 123 115 113 98 90 80 71 73 59 44 45 43 31 32 43 51 46 50 52 54 54 53 65 63 63 66 60 68 60 61 62 58 52 61 67 56 64 62 58
188 153 211 202 210 232 237 235 209 216 170 143 121 110 107 102 88 74 66 58 55 54 49 45 44 54 57 55 54 60 60 60 57 60 62 61 62 62 65 63 58 52 49 57 56 55 52 63 50
218 188 261 271 207 200 241 233 339 245 155 146 116 126 122 106 98 90 85 66 66 63 57 54 49 51 54 56 58 60 60 60 61 63 60 56 60 60 60 62 62 56 50 45 52 56 53 62 55
333 262 179 199 246 237 291 268 52 47 70 107 122 114 104 107 105 102 91 83 72 66 65 60 58 59 56 59 62 62 61 59 59 58 58 57 63 63 66 65 63 57 51 45 54 60 55 62 61